EUS16TU EGPH-EBBR

Flight info

Callsign EUS16TU
Flight time 1h 22m
Altitude 25000
Route TLA Y96 OTBUN/N0451F390 DCT NATEB DCT GODOS DCT ALFEN DCT ORCAV Z310 WOODY
Aircraft B738/M-SDE2E3FGHIRWXY/LB1

Departure

Time 2026-05-06 10:29
Airport Edinburgh Airport (EGPH)

Arrival

Time 2026-05-06 11:51
Airport Brussels Airport (EBBR)
Time Latitude Longitude Altitude Speed Heading
2026-05-06 10:07 55.94781 -3.36884 115 ft 0 kts 269°
2026-05-06 10:07 55.94781 -3.36879 115 ft 0 kts 269°
2026-05-06 10:20 55.94781 -3.36848 111 ft 4 kts 271°
2026-05-06 10:20 55.94779 -3.36801 112 ft 4 kts 287°
2026-05-06 10:20 55.94767 -3.36768 115 ft 2 kts 342°
2026-05-06 10:20 55.94765 -3.36766 111 ft 0 kts 344°
2026-05-06 10:24 55.94767 -3.36767 112 ft 2 kts 344°
2026-05-06 10:24 55.94799 -3.36777 115 ft 7 kts 355°
2026-05-06 10:24 55.94852 -3.36779 115 ft 8 kts 360°
2026-05-06 10:25 55.94901 -3.36809 112 ft 7 kts 330°
2026-05-06 10:25 55.94925 -3.36881 115 ft 7 kts 266°
2026-05-06 10:25 55.94903 -3.36964 114 ft 8 kts 239°
2026-05-06 10:25 55.94869 -3.37063 113 ft 11 kts 238°
2026-05-06 10:26 55.94825 -3.37197 114 ft 14 kts 240°
2026-05-06 10:26 55.94768 -3.37361 114 ft 17 kts 239°
2026-05-06 10:26 55.94702 -3.37558 113 ft 20 kts 239°
2026-05-06 10:26 55.94628 -3.37776 112 ft 22 kts 238°
2026-05-06 10:27 55.94544 -3.38024 112 ft 24 kts 238°
2026-05-06 10:27 55.94455 -3.38282 113 ft 25 kts 238°
2026-05-06 10:27 55.94369 -3.38535 113 ft 23 kts 238°
2026-05-06 10:27 55.94293 -3.38762 113 ft 15 kts 238°
2026-05-06 10:28 55.94323 -3.38907 115 ft 15 kts 329°
2026-05-06 10:28 55.94412 -3.38957 110 ft 14 kts 29°
2026-05-06 10:28 55.94476 -3.38794 111 ft 30 kts 59°
2026-05-06 10:28 55.94718 -3.38081 112 ft 102 kts 59°
2026-05-06 10:29 55.95193 -3.36681 140 ft 156 kts 59°
2026-05-06 10:29 55.95780 -3.34902 645 ft 172 kts 57°
2026-05-06 10:29 55.96577 -3.33247 1367 ft 181 kts 43°
2026-05-06 10:29 55.97545 -3.31852 2311 ft 174 kts 39°
2026-05-06 10:30 55.98525 -3.30518 3051 ft 189 kts 42°
2026-05-06 10:30 55.99654 -3.29017 3283 ft 218 kts 23°
2026-05-06 10:30 56.00680 -3.28767 3480 ft 233 kts 353°
2026-05-06 10:30 56.02127 -3.30110 4074 ft 244 kts 313°
2026-05-06 10:31 56.02951 -3.32859 4528 ft 263 kts 283°
2026-05-06 10:31 56.03031 -3.36150 5339 ft 269 kts 259°
2026-05-06 10:31 56.02543 -3.39329 5841 ft 268 kts 255°
2026-05-06 10:31 56.02034 -3.42561 5972 ft 264 kts 255°
2026-05-06 10:32 56.01419 -3.45607 5982 ft 266 kts 244°
2026-05-06 10:32 56.00553 -3.48550 5998 ft 270 kts 242°
2026-05-06 10:32 55.99618 -3.51535 6595 ft 273 kts 242°
2026-05-06 10:32 55.98698 -3.54472 7611 ft 270 kts 242°
2026-05-06 10:33 55.97799 -3.57381 8455 ft 273 kts 243°
2026-05-06 10:33 55.96883 -3.60382 9311 ft 277 kts 243°
2026-05-06 10:33 55.95956 -3.63442 9952 ft 288 kts 243°
2026-05-06 10:33 55.94979 -3.66604 9762 ft 291 kts 238°
2026-05-06 10:34 55.93488 -3.68925 9898 ft 286 kts 205°
2026-05-06 10:34 55.91546 -3.69684 10297 ft 293 kts 184°
2026-05-06 10:34 55.89433 -3.69249 10465 ft 322 kts 164°
2026-05-06 10:34 55.87290 -3.67746 10879 ft 338 kts 156°
2026-05-06 10:35 55.85159 -3.65887 11582 ft 344 kts 154°
2026-05-06 10:35 55.83018 -3.63936 12367 ft 348 kts 154°
2026-05-06 10:35 55.80847 -3.61964 13173 ft 352 kts 155°
2026-05-06 10:35 55.78645 -3.59996 13969 ft 357 kts 156°
2026-05-06 10:36 55.76409 -3.58026 14716 ft 361 kts 156°
2026-05-06 10:36 55.74147 -3.56042 15495 ft 365 kts 154°
2026-05-06 10:36 55.72049 -3.53435 16238 ft 374 kts 138°
2026-05-06 10:36 55.70410 -3.49822 17032 ft 381 kts 122°
2026-05-06 10:37 55.69137 -3.45673 17785 ft 386 kts 119°
2026-05-06 10:37 55.67869 -3.41450 18483 ft 391 kts 119°
2026-05-06 10:37 55.66580 -3.37175 19111 ft 395 kts 120°
2026-05-06 10:37 55.65272 -3.32867 19772 ft 398 kts 120°
2026-05-06 10:38 55.63950 -3.28540 20445 ft 401 kts 120°
2026-05-06 10:38 55.62609 -3.24180 21068 ft 406 kts 120°
2026-05-06 10:38 55.61252 -3.19788 21674 ft 410 kts 120°
2026-05-06 10:38 55.59872 -3.15338 22295 ft 414 kts 121°
2026-05-06 10:39 55.58479 -3.10859 22904 ft 417 kts 121°
2026-05-06 10:39 55.57074 -3.06349 23497 ft 421 kts 121°
2026-05-06 10:39 55.55648 -3.01786 23990 ft 426 kts 121°
2026-05-06 10:39 55.54209 -2.97191 24489 ft 429 kts 121°
2026-05-06 10:40 55.52761 -2.92571 24988 ft 432 kts 121°
2026-05-06 10:40 55.51304 -2.87931 25032 ft 432 kts 121°
2026-05-06 10:40 55.49846 -2.83298 25046 ft 432 kts 121°
2026-05-06 10:40 55.48385 -2.78665 25038 ft 432 kts 121°
2026-05-06 10:41 55.46944 -2.74104 25046 ft 431 kts 121°
2026-05-06 10:41 55.45470 -2.69444 25049 ft 430 kts 121°
2026-05-06 10:41 55.44029 -2.64902 25056 ft 430 kts 121°
2026-05-06 10:41 55.42571 -2.60316 25055 ft 430 kts 121°
2026-05-06 10:42 55.41108 -2.55722 25054 ft 430 kts 121°
2026-05-06 10:42 55.39645 -2.51137 25050 ft 430 kts 121°
2026-05-06 10:42 55.38176 -2.46541 25053 ft 431 kts 121°
2026-05-06 10:42 55.36706 -2.41951 25063 ft 431 kts 121°
2026-05-06 10:43 55.35233 -2.37361 25056 ft 431 kts 121°
2026-05-06 10:43 55.33760 -2.32777 25056 ft 431 kts 121°
2026-05-06 10:43 55.32281 -2.28187 25057 ft 432 kts 121°
2026-05-06 10:44 55.29319 -2.19016 25062 ft 432 kts 121°
2026-05-06 10:44 55.27836 -2.14439 25067 ft 431 kts 121°
2026-05-06 10:44 55.26354 -2.09871 25065 ft 431 kts 121°
2026-05-06 10:44 55.24871 -2.05311 25067 ft 431 kts 122°
2026-05-06 10:45 55.23387 -2.00755 25050 ft 430 kts 121°
2026-05-06 10:45 55.21955 -1.96368 25060 ft 429 kts 122°
2026-05-06 10:45 55.20473 -1.91837 25063 ft 429 kts 122°
2026-05-06 10:45 55.18990 -1.87311 25088 ft 428 kts 122°
2026-05-06 10:46 55.17508 -1.82794 25096 ft 428 kts 122°
2026-05-06 10:46 55.16023 -1.78279 25099 ft 428 kts 122°
2026-05-06 10:46 55.14537 -1.73769 25099 ft 428 kts 122°
2026-05-06 10:46 55.13050 -1.69266 25104 ft 428 kts 122°
2026-05-06 10:47 55.11559 -1.64757 25104 ft 428 kts 122°
2026-05-06 10:47 55.10069 -1.60260 25104 ft 428 kts 122°
2026-05-06 10:47 55.08577 -1.55764 25105 ft 428 kts 122°
2026-05-06 10:47 55.07079 -1.51260 25103 ft 428 kts 122°
2026-05-06 10:48 55.05582 -1.46767 25100 ft 428 kts 122°
2026-05-06 10:48 55.04084 -1.42277 25096 ft 428 kts 122°
2026-05-06 10:48 55.02585 -1.37796 25093 ft 428 kts 122°
2026-05-06 10:48 55.01083 -1.33313 25092 ft 428 kts 122°
2026-05-06 10:49 54.99582 -1.28841 25074 ft 428 kts 122°
2026-05-06 10:49 54.98079 -1.24368 25080 ft 428 kts 122°
2026-05-06 10:49 54.96573 -1.19898 25083 ft 428 kts 122°
2026-05-06 10:49 54.95065 -1.15432 25083 ft 428 kts 122°
2026-05-06 10:50 54.93558 -1.10975 25086 ft 428 kts 122°
2026-05-06 10:50 54.92070 -1.06582 25078 ft 428 kts 122°
2026-05-06 10:50 54.90538 -1.02066 25088 ft 428 kts 122°
2026-05-06 10:50 54.89110 -0.97865 25084 ft 427 kts 122°
2026-05-06 10:51 54.87597 -0.93423 25085 ft 427 kts 123°
2026-05-06 10:51 54.86084 -0.88986 25085 ft 427 kts 123°
2026-05-06 10:51 54.84569 -0.84555 25078 ft 427 kts 123°
2026-05-06 10:51 54.83054 -0.80129 25081 ft 427 kts 123°
2026-05-06 10:52 54.81538 -0.75711 25077 ft 427 kts 123°
2026-05-06 10:52 54.80019 -0.71290 25078 ft 426 kts 123°
2026-05-06 10:52 54.78501 -0.66882 25080 ft 426 kts 123°
2026-05-06 10:52 54.76979 -0.62468 25074 ft 426 kts 123°
2026-05-06 10:53 54.75456 -0.58062 25073 ft 427 kts 123°
2026-05-06 10:53 54.73932 -0.53659 25068 ft 426 kts 123°
2026-05-06 10:53 54.72407 -0.49260 25078 ft 426 kts 123°
2026-05-06 10:53 54.70879 -0.44863 25074 ft 427 kts 123°
2026-05-06 10:54 54.69348 -0.40462 25075 ft 427 kts 123°
2026-05-06 10:54 54.67817 -0.36071 25073 ft 427 kts 123°
2026-05-06 10:54 54.66282 -0.31676 25072 ft 427 kts 123°
2026-05-06 10:54 54.64746 -0.27286 25070 ft 427 kts 123°
2026-05-06 10:55 54.63208 -0.22898 25075 ft 427 kts 123°
2026-05-06 10:55 54.61669 -0.18517 25072 ft 428 kts 123°
2026-05-06 10:55 54.60113 -0.14094 25284 ft 434 kts 123°
2026-05-06 10:55 54.58542 -0.09637 25872 ft 434 kts 123°
2026-05-06 10:56 54.56975 -0.05199 26463 ft 434 kts 123°
2026-05-06 10:56 54.55400 -0.00746 26928 ft 437 kts 123°
2026-05-06 10:56 54.53872 0.03565 27311 ft 441 kts 123°
2026-05-06 10:56 54.52268 0.08084 27740 ft 444 kts 124°
2026-05-06 10:57 54.50652 0.12628 28177 ft 447 kts 124°
2026-05-06 10:57 54.49021 0.17205 28582 ft 450 kts 124°
2026-05-06 10:57 54.47379 0.21806 29015 ft 452 kts 124°
2026-05-06 10:57 54.45726 0.26427 29424 ft 455 kts 124°
2026-05-06 10:58 54.44063 0.31068 29800 ft 458 kts 124°
2026-05-06 10:58 54.42385 0.35745 30163 ft 461 kts 124°
2026-05-06 10:58 54.40696 0.40440 30478 ft 464 kts 124°
2026-05-06 10:58 54.38998 0.45155 30802 ft 465 kts 124°
2026-05-06 10:59 54.37312 0.49826 31120 ft 467 kts 124°
2026-05-06 10:59 54.35572 0.54636 31427 ft 469 kts 124°
2026-05-06 10:59 54.33874 0.59322 31782 ft 469 kts 124°
2026-05-06 10:59 54.32154 0.64063 32229 ft 468 kts 124°
2026-05-06 11:00 54.30438 0.68782 32684 ft 466 kts 125°
2026-05-06 11:00 54.28726 0.73480 33116 ft 464 kts 125°
2026-05-06 11:00 54.27018 0.78161 33503 ft 464 kts 125°
2026-05-06 11:00 54.25309 0.82831 33894 ft 463 kts 125°
2026-05-06 11:01 54.23599 0.87497 34231 ft 462 kts 125°
2026-05-06 11:01 54.21892 0.92145 34532 ft 462 kts 125°
2026-05-06 11:01 54.20180 0.96795 34781 ft 463 kts 125°
2026-05-06 11:01 54.18536 1.01255 35050 ft 463 kts 125°
2026-05-06 11:02 54.16820 1.05901 35349 ft 463 kts 125°
2026-05-06 11:02 54.15104 1.10540 35636 ft 463 kts 125°
2026-05-06 11:02 54.13384 1.15181 35899 ft 463 kts 126°
2026-05-06 11:02 54.11660 1.19822 36140 ft 464 kts 125°
2026-05-06 11:03 54.09932 1.24466 36440 ft 463 kts 126°
2026-05-06 11:03 54.08208 1.29094 36740 ft 463 kts 126°
2026-05-06 11:03 54.06480 1.33721 36994 ft 463 kts 126°
2026-05-06 11:03 54.04750 1.38346 37244 ft 464 kts 126°
2026-05-06 11:04 54.03014 1.42977 37461 ft 464 kts 126°
2026-05-06 11:04 54.01277 1.47602 37721 ft 464 kts 126°
2026-05-06 11:04 53.99543 1.52211 38025 ft 463 kts 125°
2026-05-06 11:04 53.97808 1.56814 38310 ft 462 kts 125°
2026-05-06 11:05 53.96076 1.61404 38598 ft 461 kts 125°
2026-05-06 11:05 53.94342 1.65986 38775 ft 462 kts 125°
2026-05-06 11:05 53.92602 1.70577 38903 ft 463 kts 125°
2026-05-06 11:06 53.89096 1.79798 38993 ft 467 kts 125°
2026-05-06 11:06 53.85579 1.89021 38995 ft 464 kts 126°
2026-05-06 11:07 53.82087 1.98146 38991 ft 460 kts 126°
2026-05-06 11:07 53.78682 2.07010 38995 ft 457 kts 126°
2026-05-06 11:08 53.75216 2.15996 38988 ft 456 kts 126°
2026-05-06 11:08 53.71752 2.24946 38983 ft 456 kts 126°
2026-05-06 11:09 53.68276 2.33892 38997 ft 462 kts 126°
2026-05-06 11:09 53.64726 2.42999 38980 ft 466 kts 126°
2026-05-06 11:10 53.61151 2.52139 38978 ft 468 kts 126°
2026-05-06 11:10 53.57557 2.61295 38962 ft 469 kts 126°
2026-05-06 11:11 53.53991 2.70349 38957 ft 459 kts 126°
2026-05-06 11:11 53.50477 2.79237 38976 ft 457 kts 126°
2026-05-06 11:12 53.46951 2.88120 38968 ft 457 kts 126°
2026-05-06 11:12 53.43421 2.96982 38969 ft 457 kts 126°
2026-05-06 11:13 53.39955 3.05656 38966 ft 458 kts 126°
2026-05-06 11:13 53.36401 3.14519 38968 ft 458 kts 127°
2026-05-06 11:14 53.32837 3.23377 38972 ft 459 kts 127°
2026-05-06 11:14 53.29265 3.32229 38971 ft 459 kts 127°
2026-05-06 11:15 53.25642 3.41028 38959 ft 459 kts 131°
2026-05-06 11:15 53.21067 3.48269 38978 ft 452 kts 145°
2026-05-06 11:16 53.16071 3.54644 38957 ft 452 kts 145°
2026-05-06 11:16 53.11075 3.61019 38956 ft 452 kts 145°
2026-05-06 11:17 53.06102 3.67421 38953 ft 452 kts 145°
2026-05-06 11:17 53.01171 3.73787 38947 ft 452 kts 145°
2026-05-06 11:18 52.96215 3.80172 38942 ft 451 kts 145°
2026-05-06 11:18 52.91260 3.86535 38935 ft 450 kts 145°
2026-05-06 11:19 52.87109 3.91850 38928 ft 450 kts 145°
2026-05-06 11:19 52.82156 3.98174 38928 ft 449 kts 145°
2026-05-06 11:20 52.76513 4.05355 38910 ft 449 kts 145°
2026-05-06 11:20 52.72364 4.10619 38915 ft 449 kts 145°
2026-05-06 11:21 52.67447 4.16843 38911 ft 448 kts 145°
2026-05-06 11:21 52.62493 4.23093 38911 ft 448 kts 145°
2026-05-06 11:21 52.60021 4.26204 38650 ft 454 kts 145°
2026-05-06 11:22 52.57503 4.29368 38063 ft 455 kts 145°
2026-05-06 11:22 52.54995 4.32518 37484 ft 452 kts 145°
2026-05-06 11:22 52.52500 4.35647 36896 ft 451 kts 145°
2026-05-06 11:22 52.50012 4.38762 36289 ft 450 kts 144°
2026-05-06 11:23 52.47536 4.41857 35677 ft 449 kts 144°
2026-05-06 11:23 52.45054 4.44955 35022 ft 449 kts 144°
2026-05-06 11:23 52.42566 4.48055 34372 ft 449 kts 144°
2026-05-06 11:23 52.40106 4.51117 33930 ft 444 kts 144°
2026-05-06 11:24 52.37655 4.54164 33375 ft 440 kts 144°
2026-05-06 11:24 52.35231 4.57173 32883 ft 435 kts 144°
2026-05-06 11:24 52.32834 4.60144 32429 ft 429 kts 144°
2026-05-06 11:24 52.30470 4.63071 31968 ft 424 kts 144°
2026-05-06 11:25 52.28131 4.65961 31519 ft 420 kts 144°
2026-05-06 11:25 52.25810 4.68826 31057 ft 416 kts 144°
2026-05-06 11:25 52.23515 4.71655 30620 ft 413 kts 144°
2026-05-06 11:25 52.21229 4.74470 30192 ft 409 kts 144°
2026-05-06 11:26 52.18973 4.77244 29728 ft 405 kts 144°
2026-05-06 11:26 52.16732 4.79993 29231 ft 401 kts 144°
2026-05-06 11:26 52.14508 4.82702 28729 ft 398 kts 145°
2026-05-06 11:26 52.12299 4.85381 28272 ft 394 kts 145°
2026-05-06 11:27 52.10118 4.88021 27825 ft 390 kts 145°
2026-05-06 11:27 52.07950 4.90644 27367 ft 387 kts 144°
2026-05-06 11:27 52.05800 4.93245 26932 ft 383 kts 145°
2026-05-06 11:27 52.03671 4.95819 26493 ft 381 kts 145°
2026-05-06 11:28 52.01550 4.98378 26068 ft 378 kts 145°
2026-05-06 11:28 51.99466 5.00689 25648 ft 372 kts 156°
2026-05-06 11:28 51.97028 5.01823 25275 ft 363 kts 176°
2026-05-06 11:28 51.94528 5.01688 24869 ft 358 kts 193°
2026-05-06 11:29 51.92306 5.00593 24508 ft 355 kts 201°
2026-05-06 11:29 51.90005 4.99177 24091 ft 353 kts 202°
2026-05-06 11:29 51.87721 4.97721 23680 ft 352 kts 202°
2026-05-06 11:29 51.85438 4.96268 23238 ft 352 kts 202°
2026-05-06 11:30 51.83163 4.94836 22772 ft 350 kts 202°
2026-05-06 11:30 51.80902 4.93428 22364 ft 347 kts 201°
2026-05-06 11:30 51.78681 4.92057 21957 ft 345 kts 201°
2026-05-06 11:30 51.76443 4.90682 21534 ft 343 kts 201°
2026-05-06 11:31 51.74220 4.89322 21139 ft 341 kts 201°
2026-05-06 11:31 51.72008 4.87970 20730 ft 339 kts 201°
2026-05-06 11:31 51.69813 4.86631 20333 ft 337 kts 201°
2026-05-06 11:31 51.67623 4.85297 19937 ft 335 kts 201°
2026-05-06 11:32 51.65444 4.83969 19551 ft 334 kts 201°
2026-05-06 11:32 51.63273 4.82648 19158 ft 333 kts 201°
2026-05-06 11:32 51.61109 4.81335 18768 ft 332 kts 201°
2026-05-06 11:32 51.58960 4.79972 18365 ft 332 kts 207°
2026-05-06 11:33 51.57053 4.77904 17927 ft 331 kts 223°
2026-05-06 11:33 51.55544 4.75089 17310 ft 334 kts 238°
2026-05-06 11:33 51.54312 4.71942 16908 ft 332 kts 239°
2026-05-06 11:33 51.53110 4.68783 16486 ft 331 kts 239°
2026-05-06 11:34 51.51911 4.65635 16113 ft 329 kts 239°
2026-05-06 11:34 51.50715 4.62514 15733 ft 328 kts 239°
2026-05-06 11:34 51.49517 4.59412 15353 ft 326 kts 239°
2026-05-06 11:34 51.48320 4.56330 14969 ft 324 kts 239°
2026-05-06 11:35 51.47127 4.53265 14591 ft 323 kts 239°
2026-05-06 11:35 51.45937 4.50218 14217 ft 322 kts 239°
2026-05-06 11:35 51.44749 4.47179 13843 ft 321 kts 239°
2026-05-06 11:35 51.43565 4.44155 13435 ft 320 kts 239°
2026-05-06 11:36 51.42381 4.41138 13022 ft 319 kts 239°
2026-05-06 11:36 51.41187 4.38150 12625 ft 318 kts 235°
2026-05-06 11:36 51.39563 4.35770 12219 ft 319 kts 211°
2026-05-06 11:36 51.37580 4.34193 11851 ft 318 kts 205°
2026-05-06 11:37 51.35571 4.32732 11484 ft 317 kts 206°
2026-05-06 11:37 51.33576 4.31264 11128 ft 315 kts 206°
2026-05-06 11:37 51.31588 4.29780 10756 ft 314 kts 206°
2026-05-06 11:37 51.29572 4.28458 10378 ft 314 kts 193°
2026-05-06 11:38 51.27456 4.28459 10246 ft 305 kts 166°
2026-05-06 11:38 51.25541 4.29834 10103 ft 295 kts 143°
2026-05-06 11:38 51.24134 4.32067 9972 ft 285 kts 122°
2026-05-06 11:38 51.23168 4.34778 9781 ft 279 kts 116°
2026-05-06 11:39 51.22273 4.37524 9469 ft 278 kts 116°
2026-05-06 11:39 51.21378 4.40253 9172 ft 277 kts 116°
2026-05-06 11:39 51.20480 4.42959 8882 ft 276 kts 116°
2026-05-06 11:39 51.19581 4.45650 8591 ft 274 kts 116°
2026-05-06 11:40 51.18740 4.48368 8301 ft 272 kts 109°
2026-05-06 11:40 51.18151 4.51218 8018 ft 269 kts 105°
2026-05-06 11:40 51.17635 4.54059 7751 ft 268 kts 103°
2026-05-06 11:40 51.17131 4.56843 7746 ft 256 kts 103°
2026-05-06 11:41 51.16643 4.59477 7709 ft 240 kts 104°
2026-05-06 11:41 51.16180 4.61938 7674 ft 226 kts 104°
2026-05-06 11:41 51.15732 4.64295 7662 ft 219 kts 105°
2026-05-06 11:41 51.15282 4.66647 7515 ft 227 kts 104°
2026-05-06 11:42 51.14824 4.69030 7296 ft 222 kts 104°
2026-05-06 11:42 51.14376 4.71340 7055 ft 215 kts 104°
2026-05-06 11:42 51.13940 4.73585 6832 ft 209 kts 104°
2026-05-06 11:42 51.13520 4.75736 6600 ft 203 kts 104°
2026-05-06 11:43 51.13102 4.77872 6390 ft 197 kts 104°
2026-05-06 11:43 51.12705 4.79893 6183 ft 191 kts 103°
2026-05-06 11:43 51.12312 4.81900 5983 ft 188 kts 103°
2026-05-06 11:44 51.10560 4.84600 5598 ft 190 kts 173°
2026-05-06 11:44 51.09261 4.84829 5429 ft 186 kts 170°
2026-05-06 11:44 51.07987 4.85106 5219 ft 184 kts 169°
2026-05-06 11:44 51.06713 4.85389 5030 ft 186 kts 169°
2026-05-06 11:45 51.05431 4.85675 4839 ft 186 kts 169°
2026-05-06 11:45 51.04145 4.85963 4658 ft 187 kts 168°
2026-05-06 11:45 51.02851 4.86252 4462 ft 188 kts 168°
2026-05-06 11:45 51.01548 4.86211 4218 ft 191 kts 203°
2026-05-06 11:46 51.00529 4.84952 4093 ft 183 kts 224°
2026-05-06 11:46 50.99560 4.83640 3897 ft 184 kts 221°
2026-05-06 11:46 50.98572 4.82338 3718 ft 185 kts 221°
2026-05-06 11:46 50.97586 4.81038 3543 ft 184 kts 221°
2026-05-06 11:47 50.96600 4.79734 3366 ft 185 kts 221°
2026-05-06 11:47 50.95822 4.78176 3150 ft 178 kts 256°
2026-05-06 11:47 50.95506 4.76307 3029 ft 177 kts 255°
2026-05-06 11:47 50.95059 4.74502 2862 ft 174 kts 252°
2026-05-06 11:48 50.94630 4.72747 2678 ft 168 kts 254°
2026-05-06 11:48 50.94228 4.71042 2522 ft 163 kts 253°
2026-05-06 11:48 50.93838 4.69368 2444 ft 163 kts 254°
2026-05-06 11:48 50.93433 4.67616 2265 ft 175 kts 253°
2026-05-06 11:49 50.93012 4.65806 2005 ft 173 kts 254°
2026-05-06 11:49 50.92601 4.64044 1758 ft 166 kts 254°
2026-05-06 11:49 50.92211 4.62357 1552 ft 161 kts 254°
2026-05-06 11:49 50.91823 4.60677 1323 ft 162 kts 254°
2026-05-06 11:50 50.91424 4.58993 1120 ft 164 kts 252°
2026-05-06 11:50 50.91011 4.57297 900 ft 165 kts 255°
2026-05-06 11:50 50.90645 4.55559 631 ft 166 kts 251°
2026-05-06 11:50 50.90244 4.53878 409 ft 161 kts 251°
2026-05-06 11:51 50.89870 4.52233 206 ft 154 kts 255°
2026-05-06 11:51 50.89536 4.50767 174 ft 126 kts 250°
2026-05-06 11:51 50.89275 4.49641 176 ft 78 kts 250°
2026-05-06 11:51 50.89243 4.49283 173 ft 27 kts 305°
2026-05-06 11:52 50.89307 4.49163 168 ft 13 kts 310°
2026-05-06 11:52 50.89370 4.49045 163 ft 13 kts 312°
2026-05-06 11:52 50.89436 4.49011 159 ft 12 kts
2026-05-06 11:52 50.89498 4.49037 157 ft 9 kts 14°
2026-05-06 11:53 50.89565 4.49064 155 ft 11 kts 14°
2026-05-06 11:53 50.89637 4.49060 151 ft 8 kts 338°
2026-05-06 11:53 50.89661 4.49043 149 ft 1 kts 335°
2026-05-06 11:53 50.89672 4.49035 148 ft 1 kts 335°
2026-05-06 11:54 50.89674 4.49034 148 ft 0 kts 335°